When you browse on this site, cookies collect data to enhance your experience and personalize the content and advertising you see.
Visit our Privacy Policy to learn more. By continuing to use the site, you agree to this use of cookies and data.
  • In Österreich
  • Länderverzeichnis
  • Für 7 Tage
  • Wassertemperatur
  • Satellitenkarten
  • Wetterkarte
  • News
  • Widgets
  • user-avatar
    Anmelden

    Stündliche Wetter Shaki

    Heute, 25 Mai, Samstag

    Zeit Temperatur Niederschläge Wind Luftdruck Luftfeuchtigkeit
    00:00 +19°C° 0 mm 2 m/S 735 mmHg 57%
    01:00 +19°C° 0 mm 2 m/S 734 mmHg 58%
    02:00 +20°C° 0 mm 1 m/S 734 mmHg 58%
    03:00 +19°C° 0 mm 2 m/S 734 mmHg 62%
    04:00 +21°C° 0.1 mm 1 m/S 734 mmHg 59%
    05:00 +22°C° 0.1 mm 1 m/S 734 mmHg 56%
    06:00 +23°C° 0.1 mm 1 m/S 734 mmHg 53%
    07:00 +25°C° 0 mm 1 m/S 734 mmHg 49%
    08:00 +26°C° 0 mm 2 m/S 734 mmHg 44%
    09:00 +28°C° 0 mm 2 m/S 733 mmHg 40%
    10:00 +29°C° 0 mm 2 m/S 733 mmHg 37%
    11:00 +31°C° 0 mm 2 m/S 733 mmHg 33%
    12:00 +32°C° 0 mm 2 m/S 732 mmHg 30%
    13:00 +32°C° 0.1 mm 2 m/S 732 mmHg 30%
    14:00 +33°C° 0.1 mm 3 m/S 732 mmHg 29%
    15:00 +34°C° 0.1 mm 4 m/S 731 mmHg 28%
    16:00 +33°C° 0.3 mm 3 m/S 731 mmHg 31%
    17:00 +31°C° 0.3 mm 2 m/S 731 mmHg 35%
    18:00 +30°C° 0.3 mm 2 m/S 731 mmHg 38%
    19:00 +28°C° 0.3 mm 2 m/S 731 mmHg 45%
    20:00 +26°C° 0.3 mm 2 m/S 731 mmHg 52%
    21:00 +22°C° 0.3 mm 3 m/S 731 mmHg 58%
    22:00 +22°C° 0.4 mm 3 m/S 731 mmHg 55%
    23:00 +22°C° 0.4 mm 3 m/S 732 mmHg 52%

    Morgen, 26 Mai, Sonntag

    Zeit Temperatur Niederschläge Wind Luftdruck Luftfeuchtigkeit
    00:00 +22°C° 0.4 mm 3 m/S 732 mmHg 49%
    01:00 +22°C° 0 mm 3 m/S 732 mmHg 48%
    02:00 +21°C° 0 mm 3 m/S 732 mmHg 47%
    03:00 +21°C° 0 mm 3 m/S 732 mmHg 46%
    04:00 +22°C° 0 mm 3 m/S 732 mmHg 45%
    05:00 +22°C° 0 mm 3 m/S 732 mmHg 44%
    06:00 +24°C° 0 mm 3 m/S 732 mmHg 42%
    07:00 +26°C° 0 mm 3 m/S 733 mmHg 37%
    08:00 +28°C° 0 mm 4 m/S 733 mmHg 31%
    09:00 +30°C° 0 mm 4 m/S 733 mmHg 25%
    10:00 +32°C° 0 mm 4 m/S 733 mmHg 24%
    11:00 +33°C° 0 mm 3 m/S 732 mmHg 23%
    12:00 +34°C° 0 mm 3 m/S 732 mmHg 22%
    13:00 +34°C° 0.1 mm 3 m/S 732 mmHg 23%
    14:00 +34°C° 0.1 mm 3 m/S 732 mmHg 24%
    15:00 +32°C° 0.1 mm 2 m/S 731 mmHg 25%
    16:00 +31°C° 0.4 mm 2 m/S 731 mmHg 32%
    17:00 +29°C° 0.4 mm 1 m/S 731 mmHg 39%
    18:00 +27°C° 0.4 mm 1 m/S 731 mmHg 46%
    19:00 +26°C° 0.5 mm 1 m/S 732 mmHg 45%
    20:00 +24°C° 0.5 mm 1 m/S 733 mmHg 45%
    21:00 +23°C° 0.5 mm 2 m/S 733 mmHg 44%
    22:00 +21°C° 0.1 mm 2 m/S 733 mmHg 42%
    23:00 +21°C° 0.1 mm 2 m/S 734 mmHg 40%

    übermorgen, 27 Mai, Montag

    Zeit Temperatur Niederschläge Wind Luftdruck Luftfeuchtigkeit
    00:00 +20°C° 0.1 mm 2 m/S 734 mmHg 38%
    01:00 +20°C° 0 mm 2 m/S 734 mmHg 37%
    02:00 +19°C° 0 mm 2 m/S 734 mmHg 36%
    03:00 +19°C° 0 mm 3 m/S 734 mmHg 35%
    04:00 +19°C° 0 mm 3 m/S 734 mmHg 36%
    05:00 +20°C° 0 mm 3 m/S 735 mmHg 37%
    06:00 +21°C° 0 mm 3 m/S 735 mmHg 39%
    07:00 +23°C° 0 mm 4 m/S 735 mmHg 36%
    08:00 +25°C° 0 mm 4 m/S 735 mmHg 34%
    09:00 +27°C° 0 mm 5 m/S 736 mmHg 32%
    10:00 +28°C° 0 mm 5 m/S 736 mmHg 29%
    11:00 +29°C° 0 mm 5 m/S 736 mmHg 26%
    12:00 +30°C° 0 mm 5 m/S 735 mmHg 23%
    13:00 +30°C° 0 mm 4 m/S 735 mmHg 22%
    14:00 +30°C° 0 mm 3 m/S 735 mmHg 22%
    15:00 +30°C° 0 mm 3 m/S 735 mmHg 22%
    16:00 +29°C° 0 mm 2 m/S 735 mmHg 25%
    17:00 +28°C° 0 mm 2 m/S 736 mmHg 28%
    18:00 +27°C° 0 mm 1 m/S 736 mmHg 31%
    19:00 +26°C° 0 mm 2 m/S 736 mmHg 29%
    20:00 +24°C° 0 mm 2 m/S 737 mmHg 27%
    21:00 +21°C° 0 mm 3 m/S 738 mmHg 25%
    22:00 +20°C° 0 mm 3 m/S 738 mmHg 32%
    23:00 +20°C° 0 mm 2 m/S 738 mmHg 40%

    28 Mai, Dienstag

    Zeit Temperatur Niederschläge Wind Luftdruck Luftfeuchtigkeit
    00:00 +19°C° 0 mm 2 m/S 738 mmHg 47%
    01:00 +19°C° 0 mm 2 m/S 738 mmHg 50%
    02:00 +20°C° 0 mm 1 m/S 738 mmHg 52%
    03:00 +19°C° 0 mm 1 m/S 738 mmHg 55%
    04:00 +20°C° 0 mm 1 m/S 739 mmHg 55%
    05:00 +21°C° 0 mm 1 m/S 739 mmHg 55%
    06:00 +22°C° 0 mm 1 m/S 739 mmHg 55%
    07:00 +23°C° 0 mm 1 m/S 739 mmHg 54%
    08:00 +24°C° 0 mm 2 m/S 739 mmHg 52%
    09:00 +25°C° 0 mm 2 m/S 739 mmHg 51%
    10:00 +25°C° 0 mm 2 m/S 739 mmHg 49%
    11:00 +26°C° 0 mm 3 m/S 739 mmHg 48%
    12:00 +27°C° 0 mm 3 m/S 738 mmHg 46%
    13:00 +27°C° 0.1 mm 3 m/S 738 mmHg 47%
    14:00 +27°C° 0.1 mm 3 m/S 738 mmHg 47%
    15:00 +27°C° 0.1 mm 3 m/S 738 mmHg 47%
    16:00 +27°C° 0.1 mm 3 m/S 738 mmHg 50%
    17:00 +26°C° 0.1 mm 3 m/S 738 mmHg 53%
    18:00 +26°C° 0.1 mm 3 m/S 738 mmHg 56%
    19:00 +24°C° 0.2 mm 3 m/S 738 mmHg 60%
    20:00 +22°C° 0.2 mm 3 m/S 739 mmHg 64%
    21:00 +20°C° 0.2 mm 2 m/S 739 mmHg 68%
    22:00 +20°C° 0.2 mm 2 m/S 739 mmHg 68%
    23:00 +20°C° 0.2 mm 2 m/S 739 mmHg 69%

    29 Mai, Mittwoch

    Zeit Temperatur Niederschläge Wind Luftdruck Luftfeuchtigkeit
    00:00 +19°C° 0.2 mm 2 m/S 739 mmHg 69%
    01:00 +19°C° 0.1 mm 2 m/S 739 mmHg 70%
    02:00 +20°C° 0.1 mm 1 m/S 739 mmHg 71%
    03:00 +19°C° 0.1 mm 1 m/S 739 mmHg 73%
    04:00 +20°C° 0 mm 1 m/S 739 mmHg 69%
    05:00 +21°C° 0 mm 1 m/S 739 mmHg 66%
    06:00 +20°C° 0 mm 0 m/S 739 mmHg 62%
    07:00 +23°C° 0 mm 1 m/S 739 mmHg 60%
    08:00 +24°C° 0 mm 2 m/S 739 mmHg 57%
    09:00 +25°C° 0 mm 2 m/S 739 mmHg 55%
    10:00 +26°C° 0.1 mm 2 m/S 739 mmHg 52%
    11:00 +27°C° 0.1 mm 2 m/S 739 mmHg 50%
    12:00 +27°C° 0.1 mm 2 m/S 738 mmHg 48%
    13:00 +28°C° 0.2 mm 2 m/S 738 mmHg 47%
    14:00 +28°C° 0.2 mm 2 m/S 738 mmHg 46%
    15:00 +29°C° 0.2 mm 2 m/S 738 mmHg 45%
    16:00 +28°C° 0.4 mm 2 m/S 738 mmHg 47%
    17:00 +28°C° 0.4 mm 2 m/S 738 mmHg 49%
    18:00 +27°C° 0.4 mm 3 m/S 738 mmHg 51%
    19:00 +26°C° 0.3 mm 2 m/S 738 mmHg 55%
    20:00 +25°C° 0.3 mm 2 m/S 738 mmHg 59%
    21:00 +23°C° 0.3 mm 2 m/S 738 mmHg 63%
    22:00 +23°C° 0 mm 2 m/S 738 mmHg 64%
    23:00 +21°C° 0 mm 2 m/S 738 mmHg 65%

    30 Mai, Donnerstag

    Zeit Temperatur Niederschläge Wind Luftdruck Luftfeuchtigkeit
    00:00 +20°C° 0 mm 2 m/S 738 mmHg 66%
    01:00 +20°C° 0 mm 2 m/S 738 mmHg 67%
    02:00 +19°C° 0 mm 2 m/S 738 mmHg 67%
    03:00 +19°C° 0 mm 2 m/S 738 mmHg 67%
    04:00 +21°C° 0 mm 1 m/S 738 mmHg 64%
    05:00 +22°C° 0 mm 1 m/S 738 mmHg 60%
    06:00 +21°C° 0 mm 0 m/S 738 mmHg 56%
    07:00 +24°C° 0 mm 1 m/S 738 mmHg 53%
    08:00 +25°C° 0 mm 1 m/S 738 mmHg 50%
    09:00 +27°C° 0 mm 2 m/S 738 mmHg 47%
    10:00 +27°C° 0.1 mm 2 m/S 737 mmHg 45%
    11:00 +28°C° 0.1 mm 3 m/S 737 mmHg 44%
    12:00 +29°C° 0.1 mm 3 m/S 737 mmHg 42%
    13:00 +29°C° 0.7 mm 3 m/S 737 mmHg 42%
    14:00 +30°C° 0.7 mm 3 m/S 736 mmHg 42%
    15:00 +30°C° 0.7 mm 2 m/S 736 mmHg 41%
    16:00 +29°C° 0.7 mm 2 m/S 736 mmHg 43%
    17:00 +29°C° 0.7 mm 2 m/S 736 mmHg 44%
    18:00 +28°C° 0.7 mm 2 m/S 736 mmHg 46%
    19:00 +26°C° 0.6 mm 3 m/S 737 mmHg 51%
    20:00 +24°C° 0.6 mm 3 m/S 737 mmHg 57%
    21:00 +22°C° 0.6 mm 3 m/S 737 mmHg 62%
    22:00 +21°C° 0 mm 3 m/S 737 mmHg 63%
    23:00 +20°C° 0 mm 3 m/S 737 mmHg 64%
    Mehr zeigen